Temp
26 26 26 26 26 26 25 25 25 25 25 25 25 25 25 26 25 25 25 25 24 24 24 24 24 24 26 26 24 24 22 20 20 21 22 24 23 23 22 23 23 22 22
27 26 25 25 24 24 24 24 24 23 23 23 23 23 23 23 24 24 24 24 24 24 24 24 24 23 24 25 24 23 21 22 20 19 21 20 20 21 21 21 21 20 20
24 23 23 23 24 23 23 23 23 23 23 23 22 22 23 23 23 23 23 24 24 24 24 24 24 23 23 25 24 23 22 21 20 19 19 19 19 19 19 18 19 19 18
24 23 23 22 22 22 22 22 22 21 21 22 22 21 21 22 22 22 22 22 23 23 24 24 24 23 24 24 23 22 21 20 20 19 19 18 18 18 18 18 18 18 18
22 22 20 20 21 21 21 21 21 20 21 20 20 20 20 20 20 21 21 21 22 22 23 23 23 23 24 24 22 21 21 20 19 18 18 18 18 18 18 17 17 16 15
20 19 19 19 19 19 19 18 19 19 19 18 18 18 18 18 18 19 20 20 21 21 22 22 22 23 23 22 20 20 20 20 19 18 18 18 17 17 17 17 16 16 15
18 17 17 17 17 16 17 17 17 17 17 17 17 17 17 17 17 17 19 20 20 20 21 21 21 21 22 21 20 19 19 19 19 19 18 18 18 18 17 16 17 17 16
16 16 15 15 15 14 13 13 13 13 14 14 15 15 15 16 17 17 18 19 20 20 20 22 20 21 20 19 19 18 18 18 18 19 19 19 19 18 18 18 18 17 16
15 15 14 14 13 13 12 12 12 12 13 14 14 14 14 15 16 17 18 18 18 18 19 21 20 20 19 18 18 18 17 17 18 18 18 18 18 18 18 18 17 17 15
15 14 14 13 13 12 11 11 11 12 12 13 15 15 15 15 15 16 17 17 18 18 18 19 19 19 18 18 19 18 16 17 17 17 17 17 17 17 18 18 18 17 15
14 14 13 13 12 11 11 10 10 11 12 13 14 15 15 15 15 16 17 17 17 18 18 17 18 18 18 18 19 18 18 17 16 16 16 16 17 17 17 17 18 18 17
14 14 13 12 11 10 10 11 10 11 12 12 13 13 13 13 13 14 15 16 17 17 17 17 17 17 18 17 18 19 18 17 16 16 16 16 16 16 17 17 17 17 17
14 13 12 12 11 11 11 12 11 11 10 10 11 11 11 12 13 13 13 15 16 16 14 13 15 16 16 17 17 18 17 17 16 15 15 15 16 16 16 16 16 16 16
14 13 12 12 10 12 11 10 10 9 10 10 9 9 10 10 11 13 13 13 12 12 13 13 13 12 13 13 12 15 16 17 16 16 16 16 15 15 15 16 15 15 15
14 13 12 11 11 11 10 9 10 10 10 10 10 10 10 10 11 11 11 11 12 12 12 12 12 12 12 12 12 13 14 16 16 16 16 16 16 15 15 15 15 15 15
14 13 13 12 12 11 11 11 10 10 10 11 10 11 11 11 11 12 12 12 12 13 12 12 11 11 11 11 12 12 13 14 15 16 16 16 16 16 16 15 15 15 15
15 14 14 13 13 12 12 11 11 11 11 11 11 11 11 12 12 12 12 12 12 14 12 12 12 12 11 12 12 13 13 13 13 14 15 16 16 16 16 15 16 15 14
15 15 15 14 13 13 12 11 11 11 11 11 12 12 11 11 12 12 12 13 12 11 11 12 12 13 13 13 14 14 15 15 15 15 15 16 16 16 16 16 15 15 15
16 15 14 14 14 14 13 12 12 12 12 12 13 13 13 13 12 12 12 12 11 11 11 12 12 13 14 15 15 15 15 15 15 15 16 16 16 16 16 16 16 15 15
16 16 15 15 14 14 14 13 13 13 13 13 13 13 14 13 13 13 13 13 12 12 11 12 12 12 13 14 15 15 15 16 16 16 16 16 16 16 16 16 16 16 16
17 16 16 15 15 15 14 14 14 13 13 13 14 14 14 13 13 13 13 13 13 13 13 13 13 14 14 15 15 15 15 15 16 17 17 17 17 17 16 16 16 16 16
17 17 16 15 15 15 15 14 14 14 13 13 14 14 15 14 14 14 14 14 14 14 14 14 14 13 15 15 15 15 15 16 16 16 16 16 16 16 16 16 15 15 14
17 17 16 16 16 16 16 16 15 14 15 15 15 15 15 15 16 16 15 15 15 16 15 15 15 15 15 16 15 16 16 16 16 17 17 16 16 16 16 15 15 15 14
16 16 15 16 16 16 16 17 16 16 16 16 16 16 17 17 17 17 17 17 17 17 17 17 17 17 17 17 16 16 16 17 16 16 16 16 16 15 14 14 14 13 13
17 17 17 17 17 18 17 17 17 17 17 17 18 17 18 18 18 18 18 18 18 17 17 17 18 17 17 17 16 16 16 16 16 16 16 15 14 14 13 13 13 12 11
17 17 17 18 18 18 19 19 18 17 18 18 18 18 18 18 18 18 17 18 18 17 17 17 17 17 17 16 16 16 16 15 15 14 14 14 14 13 13 12 11 11 10
Height
746 750 753 757 761 763 765 766 767 767 765 765 763 761 759 758 757 756 754 753 752 750 750 748 748 749 750 752 756 757 759 764 763 757 755 753 751 749 747 746 746 748 749
744 748 752 754 756 760 762 762 763 763 761 760 758 755 753 752 751 750 748 747 745 743 743 742 741 742 743 744 745 749 750 752 753 752 750 749 746 743 741 740 741 744 746
743 748 750 752 754 756 758 760 760 758 757 756 753 752 748 746 745 743 741 740 737 735 735 734 733 734 733 735 738 741 744 746 746 747 745 743 740 738 737 737 738 741 742
743 747 748 750 752 755 755 755 754 754 752 749 748 746 743 740 738 736 735 733 730 728 727 725 725 724 724 728 732 734 738 740 741 741 740 739 738 737 736 735 736 739 738
746 746 752 751 750 750 751 750 749 748 744 741 741 738 735 733 732 730 728 726 723 720 718 717 715 715 717 719 721 725 729 731 734 735 734 735 735 735 735 733 734 738 740
746 749 749 749 749 748 747 745 743 739 737 735 732 728 726 724 723 723 722 718 715 714 711 709 708 707 710 712 717 722 724 723 728 729 729 730 732 732 735 733 736 740 743
749 750 750 749 747 746 745 742 739 736 733 730 728 725 721 717 715 714 713 710 707 705 704 702 702 702 704 705 711 717 719 722 722 724 726 728 729 732 734 734 735 739 742
752 753 751 749 747 745 743 741 737 734 730 727 723 720 715 711 710 708 705 702 700 698 697 695 695 695 698 702 705 712 717 720 720 722 725 727 727 731 732 735 737 739 743
753 750 748 748 746 745 742 739 736 733 728 725 721 716 712 708 705 703 699 695 693 691 690 689 690 692 695 701 704 711 715 717 719 721 723 725 726 730 732 734 737 741 745
751 752 753 751 749 747 743 739 735 731 727 723 718 713 709 705 701 697 693 690 687 686 685 684 686 689 692 696 699 709 711 713 716 719 722 724 728 731 734 736 736 740 745
754 755 753 751 749 746 743 741 736 732 726 721 715 711 707 704 699 694 689 685 683 682 683 682 682 684 689 692 695 702 705 709 714 717 721 726 730 733 735 737 739 739 742
754 753 752 751 750 750 747 743 737 731 726 722 717 713 709 704 700 694 690 686 683 682 682 681 682 683 686 690 694 696 701 706 710 716 721 727 732 735 738 739 740 742 743
755 755 755 755 754 751 748 744 739 735 731 726 722 717 712 706 701 697 693 689 686 684 684 681 680 682 685 689 691 696 701 708 712 717 721 724 732 736 740 741 743 744 746
758 757 756 756 755 753 750 747 745 741 736 731 726 721 717 711 705 700 697 693 692 689 688 685 685 686 683 683 682 689 700 705 714 719 723 727 732 739 743 745 746 749 749
759 759 758 757 756 754 754 751 748 745 742 737 732 727 723 718 714 710 705 701 698 697 694 692 691 688 683 693 696 693 695 708 717 720 725 729 733 740 745 747 749 750 751
758 758 758 758 757 755 753 753 753 748 747 743 738 733 729 727 723 719 714 711 707 705 702 703 703 700 701 701 695 710 711 714 720 723 727 730 734 741 745 747 748 750 751
758 758 757 757 757 755 754 754 751 751 749 747 742 738 735 731 728 724 721 718 714 712 710 711 713 715 712 712 716 717 718 721 726 724 733 735 739 744 745 748 748 749 751
758 758 756 756 757 756 756 755 752 751 750 749 745 743 740 737 735 731 727 723 720 719 718 717 718 719 720 721 722 723 723 724 728 733 736 737 740 744 746 748 748 751 751
756 756 756 754 755 755 755 755 755 753 751 750 748 745 742 741 740 737 734 730 730 728 726 724 723 722 722 723 725 727 728 728 730 733 735 737 741 744 746 745 748 750 751
751 753 754 753 753 753 753 754 756 754 751 751 749 747 744 743 741 739 737 735 734 733 732 730 728 727 727 727 727 729 730 730 731 734 736 738 740 741 743 743 746 748 748
748 749 750 752 752 751 751 751 754 754 751 750 749 747 744 743 742 741 738 737 736 735 734 733 731 729 731 731 731 732 733 734 734 735 735 738 739 740 741 742 744 747 748
746 747 747 748 750 750 748 749 751 751 749 748 746 745 743 741 739 738 737 735 734 733 733 733 732 732 730 730 731 732 733 733 733 734 735 737 738 739 740 742 744 746 746
742 744 745 745 747 747 747 746 746 747 746 745 743 741 739 738 736 735 733 732 731 730 730 730 730 730 730 730 730 731 731 732 733 733 734 736 737 738 739 740 742 743 743
739 740 742 742 743 743 743 743 743 743 742 741 740 738 736 735 734 733 732 731 730 729 729 729 728 729 729 729 729 730 731 731 732 733 734 736 737 737 739 740 741 741 741
734 735 737 737 738 738 739 740 740 739 739 738 736 735 734 733 733 732 731 731 730 729 728 728 728 728 728 729 730 730 731 732 732 733 734 735 737 737 738 739 739 738 738
729 731 732 733 733 735 736 737 737 737 736 734 734 733 732 731 732 731 729 729 728 728 727 728 728 728 728 728 729 729 730 731 732 733 733 734 735 735 736 735 735 734 734
Wind_Speed
19 21 22 22 23 24 24 24 22 21 21 24 27 29 30 31 28 28 28 27 28 30 33 33 35 33 30 25 24 25 31 29 11 13 23 31 31 29 28 28 27 26 25
12 13 11 11 11 11 11 9 8 10 11 14 17 19 21 23 25 27 28 27 26 27 31 34 37 32 32 27 29 28 30 27 15 10 24 25 24 22 23 22 23 20 18
16 15 13 11 8 5 4 7 10 13 15 17 18 21 22 23 23 23 26 28 27 28 29 31 35 32 32 28 30 30 25 19 16 14 15 15 19 18 18 16 15 12 11
19 15 12 9 7 6 8 10 13 16 18 20 22 24 23 24 25 25 24 25 26 29 30 30 33 34 32 29 27 25 21 16 14 15 12 10 8 8 13 15 15 16 16
14 13 9 5 6 10 14 17 19 21 22 23 26 28 28 28 25 24 25 27 27 29 30 32 31 31 32 28 31 26 20 14 12 12 8 5 4 3 6 6 14 10 6
13 11 10 11 12 14 17 20 22 24 24 26 28 29 31 28 24 27 26 28 28 27 29 32 30 29 25 21 20 16 16 14 13 9 6 5 5 4 8 14 16 5 2
13 13 14 15 16 18 20 21 22 24 26 27 28 30 32 33 32 28 28 30 29 27 28 29 28 26 25 25 17 15 13 13 11 12 8 8 7 8 11 13 12 6 4
13 13 14 16 18 20 20 21 23 25 25 26 29 32 32 32 30 26 26 29 29 28 28 29 30 33 30 23 20 19 17 15 13 11 8 7 7 9 11 12 12 14 16
15 16 16 16 18 19 22 21 21 22 23 25 25 31 26 29 29 29 28 28 27 22 25 28 29 33 29 22 18 20 17 15 13 11 9 8 9 12 11 15 17 17 4
14 12 11 12 16 17 19 22 23 23 23 24 27 26 25 27 27 30 25 23 18 19 21 23 25 31 29 27 27 25 21 18 18 17 17 16 13 12 10 9 17 13 9
8 8 10 12 16 19 21 20 21 22 22 23 25 23 19 19 23 24 19 14 13 14 17 16 21 31 32 31 29 29 25 23 21 22 21 18 16 14 12 11 9 11 12
8 10 12 13 16 17 19 24 26 25 23 21 21 21 21 21 20 20 13 9 9 9 11 12 14 25 34 33 29 26 25 26 26 25 24 21 17 15 13 11 10 10 9
9 10 11 12 15 17 20 24 27 27 21 19 18 16 21 24 22 19 18 13 11 6 3 1 7 21 32 35 32 27 28 25 25 25 25 23 19 19 19 19 19 21 21
6 8 8 8 10 14 18 19 20 23 21 18 18 17 19 23 28 22 16 13 11 14 13 14 17 18 9 4 13 26 26 25 25 25 23 21 19 18 17 17 19 18 19
7 6 7 7 7 7 11 16 17 18 18 16 17 20 18 20 22 23 20 18 17 14 16 18 21 22 23 24 19 16 18 21 22 24 19 18 18 17 14 13 13 12 10
8 7 6 6 6 6 7 7 10 14 15 17 16 15 17 21 19 17 18 15 15 15 20 17 15 18 21 20 28 17 15 11 9 12 12 19 17 15 11 9 13 11 12
9 8 6 6 6 6 6 7 9 8 9 13 16 18 17 15 17 18 17 14 13 15 20 18 15 14 18 22 22 20 20 18 12 13 13 11 10 13 12 11 10 10 9
9 7 5 4 3 3 3 5 6 7 9 12 13 14 16 16 15 17 16 20 23 20 16 18 17 16 15 11 10 14 16 14 11 9 10 8 9 9 9 7 8 8 10
15 12 8 5 3 1 1 2 4 6 7 8 8 5 10 14 12 14 16 20 19 17 16 18 16 17 15 15 13 9 5 8 14 16 14 11 10 11 7 5 6 7 7
20 15 11 9 8 6 6 7 6 6 8 7 7 7 10 10 13 14 12 12 13 13 11 9 10 10 9 4 7 5 6 7 9 9 8 8 9 9 8 6 6 7 7
22 19 16 14 14 13 11 13 12 10 11 12 13 12 11 12 13 13 12 10 4 6 3 5 4 5 4 2 3 5 3 2 5 8 8 8 9 9 7 6 6 7 9
19 20 20 21 19 17 19 17 19 19 18 18 19 17 14 15 17 16 14 12 11 11 8 8 9 7 8 6 4 8 8 8 6 5 6 7 9 7 8 9 8 8 8
21 19 19 19 21 22 19 20 23 20 20 22 22 20 18 18 19 18 16 13 11 9 7 5 4 7 9 11 12 9 10 9 9 7 10 15 13 12 11 11 10 9 9
15 14 18 18 19 18 17 19 21 21 19 19 17 16 17 17 15 15 13 11 10 6 7 9 10 7 7 7 10 9 5 7 9 6 4 7 9 9 9 9 9 11 13
17 22 20 20 16 14 15 16 15 16 17 17 16 15 15 15 14 11 8 8 9 8 6 7 7 6 6 8 8 10 9 10 8 9 7 7 7 7 8 11 14 16 16
21 23 21 18 15 15 14 13 16 15 12 14 14 17 18 18 16 14 11 11 11 10 9 8 8 8 8 10 11 10 8 11 9 8 7 7 7 7 9 12 13 13 14
Wind_Direction
214 219 227 238 246 249 255 263 271 277 278 281 286 282 280 283 283 280 277 279 273 270 267 263 264 259 255 249 232 242 246 238 239 262 270 280 284 281 277 270 266 257 253
204 210 214 228 240 252 265 281 296 305 303 302 299 294 293 292 290 285 284 282 275 268 267 264 263 256 258 244 239 244 244 241 232 246 274 278 283 288 279 271 258 251 244
127 121 109 92 85 64 359 316 308 303 306 301 301 299 301 300 297 295 291 288 285 279 275 267 266 258 249 240 246 244 238 240 241 241 266 281 296 293 272 260 241 235 239
103 97 83 58 29 358 329 318 316 311 313 314 309 305 302 301 301 301 297 293 289 285 279 273 269 260 253 236 243 229 225 233 243 240 254 279 281 289 260 196 165 165 151
91 85 69 37 359 339 328 322 320 317 317 315 309 306 306 304 302 301 300 298 293 290 288 280 268 261 257 245 236 216 215 222 232 242 250 260 248 211 149 146 122 125 66
78 62 36 14 359 348 337 331 328 328 327 322 319 317 311 308 299 297 294 295 294 283 279 281 269 257 235 225 211 219 221 209 219 217 220 221 218 168 151 144 137 120 95
55 41 25 12 4 356 346 341 337 332 327 322 320 317 314 311 307 298 295 292 294 288 282 273 255 222 214 206 205 213 207 207 211 218 211 195 195 203 177 154 143 119 109
54 39 26 16 4 356 351 343 338 333 328 322 324 321 313 310 309 304 294 294 291 288 277 267 241 224 214 201 191 195 202 203 197 199 202 202 187 192 177 170 154 123 116
54 40 27 14 8 360 353 342 334 327 321 319 313 318 304 305 309 303 299 293 289 283 271 257 239 228 212 193 188 189 187 188 193 203 198 176 160 162 169 159 145 138 106
48 40 23 16 11 0 353 352 341 336 324 321 322 320 317 318 320 314 304 290 283 277 262 252 236 228 207 189 181 188 173 166 158 143 136 133 138 142 154 179 160 147 120
55 41 32 30 16 9 2 354 346 338 335 346 343 340 340 335 330 324 323 297 280 276 264 254 227 225 203 189 185 186 180 163 152 144 136 129 125 124 132 135 150 157 141
53 43 35 32 28 18 17 14 12 8 1 351 356 1 0 355 356 355 341 328 316 291 275 258 246 219 199 190 186 180 169 159 151 144 140 135 129 121 118 118 116 122 115
49 46 45 45 34 30 27 23 20 21 12 358 356 358 4 9 9 2 10 355 337 325 354 122 238 212 199 193 190 173 162 161 155 150 148 142 135 129 123 116 114 115 107
61 52 52 57 45 35 37 33 29 25 18 19 16 11 14 22 19 15 12 20 54 84 94 95 82 70 97 87 152 149 162 162 160 153 145 137 137 139 136 134 131 129 118
92 89 77 67 66 42 38 32 39 39 27 21 33 44 34 26 38 40 41 51 64 74 85 86 83 86 82 78 88 106 133 143 153 148 152 156 152 155 154 159 155 149 140
128 116 101 83 73 57 46 41 40 45 40 42 35 44 46 45 41 41 45 50 62 74 76 69 64 81 76 74 92 81 97 125 162 168 160 158 160 168 168 168 167 167 156
153 139 127 112 90 75 59 49 48 41 41 42 42 41 37 32 38 42 43 56 61 66 66 66 80 92 106 101 105 102 96 92 98 125 150 149 175 179 170 174 168 169 169
189 182 173 144 113 67 36 34 42 27 21 28 45 32 31 33 36 48 55 61 54 56 72 78 72 81 95 109 118 138 140 137 127 178 183 176 179 197 199 194 176 175 177
211 212 209 189 185 177 294 339 14 359 12 26 28 43 16 18 27 30 38 47 39 45 52 68 81 88 86 94 94 97 123 151 152 157 160 163 160 171 200 208 216 230 217
219 223 223 223 228 234 255 277 292 311 322 334 329 322 342 359 9 3 6 33 31 20 39 45 39 66 99 56 87 74 80 110 138 143 147 153 165 174 183 186 205 216 223
219 219 229 235 244 249 257 261 272 274 285 297 301 305 316 315 318 323 331 337 4 66 32 30 22 316 308 216 236 307 287 272 174 169 183 197 203 199 200 210 219 223 228
223 226 230 234 246 253 259 264 267 273 279 283 292 299 306 304 308 309 313 313 309 293 275 280 278 263 260 277 267 260 256 257 267 271 247 220 211 221 226 229 230 236 248
218 225 232 240 249 254 262 274 276 274 280 285 287 293 302 302 304 308 311 319 327 318 302 283 272 297 256 246 242 241 265 262 261 278 252 237 245 246 242 240 237 236 243
220 241 251 252 244 249 256 267 270 278 284 283 284 292 296 302 306 308 312 326 328 314 283 291 298 298 259 254 245 245 253 238 222 215 247 251 246 243 246 250 264 273 275
226 239 256 257 253 242 247 257 273 272 271 272 278 280 291 303 313 319 309 313 315 310 302 286 281 263 251 246 243 237 243 210 217 240 229 231 239 245 263 275 279 279 277
226 241 248 249 247 235 246 261 277 271 283 292 290 289 281 294 290 309 302 301 307 283 284 294 278 266 272 253 241 236 237 231 237 230 240 235 246 270 286 291 289 285 284